TimeEDT,TemperatureF,Dew PointF,Humidity,Sea Level PressureIn,VisibilityMPH,Wind Direction,Wind SpeedMPH,Gust SpeedMPH,PrecipitationIn,Events,Conditions,WindDirDegrees,DateUTC
1:00 AM,44.6,39.6,82,30.20,-9999.0,NNW,3.5,-,N/A,,Unknown,330,2012-10-09 05:00:00
2:00 AM,51,42,64,30.20,,SW,11.5,,,,,230,2012-10-09 06:00:00
2:00 AM,51.4,42.4,71,30.20,-9999.0,SW,11.5,-,N/A,,Unknown,230,2012-10-09 06:00:00
3:00 AM,53.1,44.6,73,30.19,-9999.0,SSW,17.3,-,N/A,,Unknown,210,2012-10-09 07:00:00
4:00 AM,50.9,42.4,73,30.19,-9999.0,SW,13.8,-,N/A,,Unknown,220,2012-10-09 08:00:00
5:00 AM,50,40,59,30.19,,SSW,12.7,,,,,210,2012-10-09 09:00:00
5:00 AM,50.2,39.9,68,30.19,-9999.0,SSW,12.7,-,N/A,,Unknown,210,2012-10-09 09:00:00
6:00 AM,49.1,39.9,71,30.20,-9999.0,SSW,12.7,-,N/A,,Unknown,210,2012-10-09 10:00:00
7:00 AM,51.3,41.5,69,30.20,-9999.0,South,12.7,-,N/A,,Unknown,190,2012-10-09 11:00:00
8:00 AM,52,43,63,30.20,,South,12.7,,,,,190,2012-10-09 12:00:00
8:00 AM,51.6,43.2,73,30.20,-9999.0,South,12.7,-,N/A,,Unknown,190,2012-10-09 12:00:00
9:00 AM,52.5,42.8,70,30.20,-9999.0,SSW,15.0,-,N/A,,Unknown,200,2012-10-09 13:00:00
10:00 AM,55.2,45.5,70,30.20,-9999.0,South,15.0,-,N/A,,Unknown,190,2012-10-09 14:00:00
11:00 AM,56,46,60,30.18,,South,13.8,,,,,190,2012-10-09 15:00:00
11:00 AM,55.8,46.0,70,30.18,-9999.0,South,13.8,-,N/A,,Unknown,190,2012-10-09 15:00:00
12:00 PM,56.8,45.0,64,30.17,-9999.0,South,10.4,-,N/A,,Unknown,190,2012-10-09 16:00:00
1:00 PM,57.6,44.6,62,30.15,-9999.0,SSW,11.5,-,N/A,,Unknown,200,2012-10-09 17:00:00
2:00 PM,57,44,52,30.13,,South,10.4,,,,,190,2012-10-09 18:00:00
2:00 PM,57.2,44.1,62,30.13,-9999.0,South,10.4,-,N/A,,Unknown,190,2012-10-09 18:00:00
3:00 PM,56.7,43.7,62,30.11,-9999.0,South,8.1,-,N/A,,Unknown,170,2012-10-09 19:00:00
4:00 PM,56.3,42.3,59,30.08,-9999.0,South,3.5,-,N/A,,Unknown,180,2012-10-09 20:00:00
5:00 PM,55,42,51,30.06,,SSE,3.5,,,,,160,2012-10-09 21:00:00
5:00 PM,55.4,42.1,61,30.06,-9999.0,SSE,3.5,-,N/A,,Unknown,160,2012-10-09 21:00:00
6:00 PM,54.3,43.5,67,30.05,-9999.0,East,3.5,-,N/A,,Unknown,100,2012-10-09 22:00:00
7:00 PM,55.2,45.1,69,30.03,-9999.0,ESE,8.1,-,N/A,,Unknown,110,2012-10-09 23:00:00
8:00 PM,57,47,61,30.01,,SE,12.7,,,,,130,2012-10-10 00:00:00
8:00 PM,57.0,47.1,69,30.01,-9999.0,SE,12.7,-,N/A,,Unknown,130,2012-10-10 00:00:00
9:00 PM,59.0,50.0,72,29.99,-9999.0,SE,23.0,-,N/A,,Unknown,140,2012-10-10 01:00:00
10:00 PM,59.0,49.1,70,29.97,-9999.0,South,28.8,-,N/A,,Unknown,170,2012-10-10 02:00:00
11:00 PM,59,49,61,29.96,,South,32.2,,,,,180,2012-10-10 03:00:00
11:00 PM,58.6,49.1,71,29.96,-9999.0,South,32.2,-,N/A,,Unknown,180,2012-10-10 03:00:00